N510HS KSAN-KLAX

Flight info

Callsign N510HS
Flight time 0h 28m
Altitude 10000
Route CWARD2 SLI
Aircraft C510/L-SDFGRWY/LB1

Departure

Time 2026-04-25 04:25
Airport San Diego International Airport (KSAN)

Arrival

Time 2026-04-25 04:53
Airport Los Angeles International Airport (KLAX)
Time Latitude Longitude Altitude Speed Heading
2026-04-25 04:03 32.73412 -117.17971 13 ft 0 kts 290°
2026-04-25 04:19 32.73416 -117.17974 23 ft 1 kts 346°
2026-04-25 04:19 32.73420 -117.17965 25 ft 4 kts 102°
2026-04-25 04:19 32.73413 -117.17954 24 ft 4 kts 185°
2026-04-25 04:19 32.73351 -117.17954 22 ft 12 kts 198°
2026-04-25 04:20 32.73247 -117.17974 18 ft 17 kts 160°
2026-04-25 04:20 32.73204 -117.17868 18 ft 13 kts 107°
2026-04-25 04:20 32.73180 -117.17777 19 ft 14 kts 104°
2026-04-25 04:20 32.73154 -117.17661 19 ft 16 kts 107°
2026-04-25 04:21 32.73117 -117.17570 18 ft 10 kts 143°
2026-04-25 04:21 32.73096 -117.17553 18 ft 0 kts 144°
2026-04-25 04:23 32.73095 -117.17552 18 ft 2 kts 144°
2026-04-25 04:24 32.73048 -117.17522 19 ft 13 kts 171°
2026-04-25 04:24 32.73014 -117.17563 19 ft 6 kts 288°
2026-04-25 04:24 32.73103 -117.17929 15 ft 84 kts 287°
2026-04-25 04:24 32.73303 -117.18760 268 ft 117 kts 285°
2026-04-25 04:25 32.73563 -117.19757 832 ft 140 kts 287°
2026-04-25 04:25 32.74011 -117.20905 1372 ft 167 kts 300°
2026-04-25 04:25 32.74753 -117.22072 1909 ft 187 kts 311°
2026-04-25 04:25 32.75739 -117.23179 2443 ft 203 kts 320°
2026-04-25 04:26 32.76882 -117.24227 2975 ft 212 kts 323°
2026-04-25 04:26 32.78162 -117.25146 3506 ft 217 kts 330°
2026-04-25 04:26 32.79297 -117.26277 4016 ft 218 kts 303°
2026-04-25 04:26 32.79751 -117.27970 4537 ft 218 kts 271°
2026-04-25 04:27 32.79372 -117.29680 5036 ft 212 kts 246°
2026-04-25 04:27 32.79328 -117.31359 5458 ft 214 kts 298°
2026-04-25 04:27 32.80287 -117.32719 5954 ft 206 kts 306°
2026-04-25 04:27 32.80961 -117.34106 6795 ft 190 kts 291°
2026-04-25 04:28 32.81417 -117.35570 7340 ft 191 kts 289°
2026-04-25 04:28 32.81961 -117.37029 7826 ft 195 kts 293°
2026-04-25 04:28 32.82547 -117.38488 8320 ft 197 kts 293°
2026-04-25 04:28 32.83154 -117.39951 8816 ft 198 kts 294°
2026-04-25 04:29 32.83754 -117.41401 9313 ft 198 kts 294°
2026-04-25 04:29 32.84397 -117.42850 9827 ft 198 kts 301°
2026-04-25 04:29 32.85468 -117.43979 9972 ft 217 kts 320°
2026-04-25 04:29 32.86665 -117.45142 9973 ft 227 kts 310°
2026-04-25 04:30 32.87697 -117.46607 9969 ft 235 kts 304°
2026-04-25 04:30 32.88739 -117.48139 9994 ft 241 kts 307°
2026-04-25 04:30 32.89839 -117.49671 9996 ft 246 kts 307°
2026-04-25 04:30 32.90952 -117.51229 10002 ft 249 kts 307°
2026-04-25 04:31 32.92077 -117.52808 10002 ft 251 kts 307°
2026-04-25 04:31 32.93207 -117.54399 10005 ft 253 kts 307°
2026-04-25 04:31 32.94331 -117.55980 10004 ft 254 kts 307°
2026-04-25 04:31 32.95473 -117.57587 10007 ft 255 kts 307°
2026-04-25 04:32 32.96618 -117.59198 10003 ft 255 kts 307°
2026-04-25 04:32 32.97765 -117.60813 10003 ft 256 kts 307°
2026-04-25 04:32 32.98912 -117.62431 10005 ft 256 kts 307°
2026-04-25 04:32 33.00061 -117.64049 10004 ft 256 kts 307°
2026-04-25 04:33 33.01211 -117.65672 10002 ft 256 kts 307°
2026-04-25 04:33 33.02360 -117.67292 10005 ft 256 kts 307°
2026-04-25 04:33 33.03509 -117.68915 10002 ft 256 kts 307°
2026-04-25 04:33 33.04659 -117.70537 10003 ft 256 kts 307°
2026-04-25 04:34 33.05793 -117.72142 10005 ft 256 kts 307°
2026-04-25 04:34 33.06943 -117.73765 10007 ft 256 kts 307°
2026-04-25 04:34 33.08092 -117.75394 10000 ft 257 kts 307°
2026-04-25 04:34 33.09244 -117.77019 10001 ft 257 kts 307°
2026-04-25 04:35 33.10393 -117.78647 10004 ft 257 kts 307°
2026-04-25 04:35 33.11546 -117.80277 10006 ft 257 kts 307°
2026-04-25 04:35 33.12759 -117.81828 9998 ft 258 kts 318°
2026-04-25 04:35 33.14327 -117.82902 9993 ft 261 kts 330°
2026-04-25 04:36 33.15972 -117.83833 9992 ft 262 kts 331°
2026-04-25 04:36 33.17624 -117.84760 9992 ft 262 kts 331°
2026-04-25 04:36 33.19280 -117.85681 9994 ft 263 kts 331°
2026-04-25 04:36 33.21006 -117.86391 10003 ft 266 kts 346°
2026-04-25 04:37 33.22861 -117.86581 9997 ft 269 kts 353°
2026-04-25 04:37 33.24706 -117.86699 9998 ft 269 kts 353°
2026-04-25 04:37 33.26579 -117.86810 9998 ft 270 kts 353°
2026-04-25 04:37 33.28455 -117.86919 9997 ft 270 kts 353°
2026-04-25 04:38 33.30335 -117.87025 9993 ft 270 kts 353°
2026-04-25 04:38 33.32214 -117.87130 9995 ft 270 kts 354°
2026-04-25 04:38 33.34043 -117.87476 9963 ft 264 kts 336°
2026-04-25 04:38 33.35708 -117.88337 9990 ft 262 kts 338°
2026-04-25 04:39 33.37475 -117.88897 9993 ft 264 kts 343°
2026-04-25 04:39 33.39238 -117.89499 9989 ft 263 kts 338°
2026-04-25 04:39 33.40955 -117.90244 9994 ft 263 kts 336°
2026-04-25 04:39 33.42661 -117.90960 9994 ft 264 kts 338°
2026-04-25 04:40 33.44402 -117.91653 9993 ft 264 kts 338°
2026-04-25 04:40 33.46148 -117.92357 9993 ft 265 kts 338°
2026-04-25 04:40 33.47894 -117.93065 9872 ft 267 kts 338°
2026-04-25 04:40 33.49636 -117.93773 9408 ft 261 kts 339°
2026-04-25 04:41 33.51334 -117.94462 8943 ft 256 kts 339°
2026-04-25 04:41 33.53006 -117.95142 8486 ft 252 kts 339°
2026-04-25 04:41 33.54576 -117.95780 8057 ft 249 kts 340°
2026-04-25 04:41 33.56214 -117.96446 7616 ft 252 kts 340°
2026-04-25 04:42 33.57882 -117.97125 7363 ft 253 kts 341°
2026-04-25 04:42 33.59531 -117.97792 7115 ft 254 kts 341°
2026-04-25 04:42 33.61193 -117.98471 7013 ft 248 kts 341°
2026-04-25 04:42 33.62779 -117.99115 7013 ft 235 kts 341°
2026-04-25 04:43 33.64307 -117.99740 7010 ft 234 kts 341°
2026-04-25 04:43 33.65834 -118.00361 7005 ft 228 kts 341°
2026-04-25 04:43 33.67336 -118.00974 7003 ft 229 kts 341°
2026-04-25 04:43 33.68849 -118.01590 6974 ft 230 kts 341°
2026-04-25 04:44 33.70368 -118.02190 6976 ft 231 kts 342°
2026-04-25 04:44 33.71912 -118.02785 6975 ft 234 kts 342°
2026-04-25 04:44 33.73456 -118.03380 6975 ft 232 kts 342°
2026-04-25 04:44 33.74997 -118.03976 6972 ft 234 kts 342°
2026-04-25 04:45 33.76547 -118.04576 6975 ft 234 kts 342°
2026-04-25 04:45 33.78046 -118.05244 6968 ft 233 kts 335°
2026-04-25 04:45 33.79521 -118.06144 6611 ft 239 kts 332°
2026-04-25 04:45 33.80984 -118.07080 6247 ft 237 kts 332°
2026-04-25 04:46 33.82428 -118.08025 5870 ft 235 kts 332°
2026-04-25 04:46 33.83860 -118.08962 5490 ft 233 kts 332°
2026-04-25 04:46 33.85280 -118.09892 5137 ft 232 kts 332°
2026-04-25 04:46 33.86677 -118.10802 5008 ft 224 kts 332°
2026-04-25 04:47 33.88050 -118.11692 5006 ft 225 kts 332°
2026-04-25 04:47 33.89348 -118.12535 5004 ft 201 kts 332°
2026-04-25 04:47 33.90542 -118.13309 4797 ft 195 kts 332°
2026-04-25 04:47 33.91745 -118.14089 4386 ft 198 kts 332°
2026-04-25 04:48 33.92965 -118.14875 3993 ft 199 kts 332°
2026-04-25 04:48 33.94163 -118.15644 3626 ft 197 kts 332°
2026-04-25 04:48 33.95163 -118.16729 3215 ft 196 kts 302°
2026-04-25 04:48 33.95589 -118.18257 3001 ft 187 kts 280°
2026-04-25 04:49 33.95544 -118.19738 3002 ft 170 kts 262°
2026-04-25 04:49 33.95362 -118.21167 2846 ft 175 kts 264°
2026-04-25 04:49 33.95195 -118.22585 2861 ft 167 kts 263°
2026-04-25 04:49 33.95034 -118.23887 2632 ft 149 kts 264°
2026-04-25 04:50 33.94952 -118.25130 2377 ft 152 kts 267°
2026-04-25 04:50 33.94863 -118.26438 2080 ft 159 kts 264°
2026-04-25 04:50 33.94745 -118.27784 1844 ft 164 kts 266°
2026-04-25 04:50 33.94661 -118.29107 1678 ft 158 kts 265°
2026-04-25 04:51 33.94542 -118.30382 1437 ft 148 kts 263°
2026-04-25 04:51 33.94400 -118.31610 1165 ft 143 kts 262°
2026-04-25 04:51 33.94263 -118.32744 944 ft 137 kts 261°
2026-04-25 04:51 33.94153 -118.33883 801 ft 138 kts 263°
2026-04-25 04:52 33.94049 -118.34969 641 ft 127 kts 262°
2026-04-25 04:52 33.93967 -118.35963 517 ft 113 kts 262°
2026-04-25 04:52 33.93888 -118.36877 426 ft 111 kts 262°
2026-04-25 04:52 33.93790 -118.37809 245 ft 111 kts 260°
2026-04-25 04:53 33.93693 -118.38706 126 ft 98 kts 260°
2026-04-25 04:53 33.93617 -118.39404 122 ft 53 kts 262°
2026-04-25 04:53 33.93592 -118.39685 122 ft 29 kts 263°
2026-04-25 04:53 33.93567 -118.39917 122 ft 23 kts 264°
2026-04-25 04:54 33.93531 -118.40091 120 ft 21 kts 249°
2026-04-25 04:54 33.93481 -118.40201 121 ft 7 kts 208°
2026-04-25 04:54 33.93442 -118.40196 122 ft 0 kts 149°
2026-04-25 04:54 33.93441 -118.40195 122 ft 2 kts 149°
2026-04-25 04:55 33.93419 -118.40145 120 ft 12 kts 88°
2026-04-25 04:55 33.93436 -118.40013 122 ft 19 kts 83°
2026-04-25 04:55 33.93449 -118.39876 122 ft 12 kts 82°
2026-04-25 04:55 33.93453 -118.39821 122 ft 0 kts 97°
2026-04-25 04:56 33.93437 -118.39816 119 ft 7 kts 180°
2026-04-25 04:56 33.93383 -118.39818 122 ft 11 kts 194°
2026-04-25 04:56 33.93342 -118.39830 122 ft 0 kts 182°
2026-04-25 04:56 33.93306 -118.39840 122 ft 8 kts 193°
2026-04-25 04:57 33.93278 -118.39869 122 ft 0 kts 262°